Year,Month,Day,Hour,Minute,Value (Times are PST for temperature in C)
2018,10,06,00,00,9.40
2018,10,06,00,01,9.40
2018,10,06,00,02,9.40
2018,10,06,00,03,9.40
2018,10,06,00,04,9.40
2018,10,06,00,05,9.40
2018,10,06,00,06,9.40
2018,10,06,00,07,9.40
2018,10,06,00,08,9.40
2018,10,06,00,09,9.40
2018,10,06,00,10,9.40
2018,10,06,00,11,9.40
2018,10,06,00,12,9.40
2018,10,06,00,13,9.30
2018,10,06,00,14,9.30
2018,10,06,00,15,9.30
2018,10,06,00,16,9.30
2018,10,06,00,17,9.30
2018,10,06,00,18,9.30
2018,10,06,00,19,9.30
2018,10,06,00,20,9.30
2018,10,06,00,21,9.30
2018,10,06,00,22,9.30
2018,10,06,00,23,9.30
2018,10,06,00,24,9.30
2018,10,06,00,25,9.30
2018,10,06,00,26,9.30
2018,10,06,00,27,9.30
2018,10,06,00,28,9.30
2018,10,06,00,29,9.30
2018,10,06,00,30,9.20
2018,10,06,00,31,9.20
2018,10,06,00,32,9.20
2018,10,06,00,33,9.20
2018,10,06,00,34,9.20
2018,10,06,00,35,9.20
2018,10,06,00,36,9.20
2018,10,06,00,37,9.20
2018,10,06,00,38,9.20
2018,10,06,00,39,9.20
2018,10,06,00,40,9.20
2018,10,06,00,41,9.20
2018,10,06,00,42,9.20
2018,10,06,00,43,9.30
2018,10,06,00,44,9.30
2018,10,06,00,45,9.30
2018,10,06,00,46,9.30
2018,10,06,00,47,9.30
2018,10,06,00,48,9.30
2018,10,06,00,49,9.40
2018,10,06,00,50,9.40
2018,10,06,00,51,9.40
2018,10,06,00,52,9.30
2018,10,06,00,53,9.30
2018,10,06,00,54,9.20
2018,10,06,00,55,9.20
2018,10,06,00,56,9.20
2018,10,06,00,57,9.10
2018,10,06,00,58,9.10
2018,10,06,00,59,9.10
2018,10,06,01,00,9.00
2018,10,06,01,01,9.00
2018,10,06,01,02,9.00
2018,10,06,01,03,8.90
2018,10,06,01,04,8.90
2018,10,06,01,05,8.90
2018,10,06,01,06,8.90
2018,10,06,01,07,8.90
2018,10,06,01,08,8.90
2018,10,06,01,09,8.80
2018,10,06,01,10,8.80
2018,10,06,01,11,8.80
2018,10,06,01,12,8.70
2018,10,06,01,13,8.70
2018,10,06,01,14,8.70
2018,10,06,01,15,8.70
2018,10,06,01,16,8.70
2018,10,06,01,17,8.70
2018,10,06,01,18,8.70
2018,10,06,01,19,8.70
2018,10,06,01,20,8.60
2018,10,06,01,21,8.60
2018,10,06,01,22,8.60
2018,10,06,01,23,8.60
2018,10,06,01,24,8.60
2018,10,06,01,25,8.60
2018,10,06,01,26,8.60
2018,10,06,01,27,8.60
2018,10,06,01,28,8.50
2018,10,06,01,29,8.60
2018,10,06,01,30,8.60
2018,10,06,01,31,8.60
2018,10,06,01,32,8.60
2018,10,06,01,33,8.60
2018,10,06,01,34,8.60
2018,10,06,01,35,8.60
2018,10,06,01,36,8.60
2018,10,06,01,37,8.60
2018,10,06,01,38,8.60
2018,10,06,01,39,8.60
2018,10,06,01,40,8.60
2018,10,06,01,41,8.60
2018,10,06,01,42,8.60
2018,10,06,01,43,8.60
2018,10,06,01,44,8.60
2018,10,06,01,45,8.60
2018,10,06,01,46,8.60
2018,10,06,01,47,8.60
2018,10,06,01,48,8.50
2018,10,06,01,49,8.50
2018,10,06,01,50,8.50
2018,10,06,01,51,8.50
2018,10,06,01,52,8.50
2018,10,06,01,53,8.60
2018,10,06,01,54,8.60
2018,10,06,01,55,8.60
2018,10,06,01,56,8.60
2018,10,06,01,57,8.50
2018,10,06,01,58,8.50
2018,10,06,01,59,8.40
2018,10,06,02,00,8.40
2018,10,06,02,01,8.40
2018,10,06,02,02,8.30
2018,10,06,02,03,8.30
2018,10,06,02,04,8.30
2018,10,06,02,05,8.40
2018,10,06,02,06,8.30
2018,10,06,02,07,8.30
2018,10,06,02,08,8.30
2018,10,06,02,09,8.30
2018,10,06,02,10,8.30
2018,10,06,02,11,8.20
2018,10,06,02,12,8.20
2018,10,06,02,13,8.20
2018,10,06,02,14,8.20
2018,10,06,02,15,8.20
2018,10,06,02,16,8.20
2018,10,06,02,17,8.20
2018,10,06,02,18,8.20
2018,10,06,02,19,8.20
2018,10,06,02,20,8.20
2018,10,06,02,21,8.20
2018,10,06,02,22,8.30
2018,10,06,02,23,8.30
2018,10,06,02,24,8.30
2018,10,06,02,25,8.20
2018,10,06,02,26,8.20
2018,10,06,02,27,8.20
2018,10,06,02,28,8.20
2018,10,06,02,29,8.20
2018,10,06,02,30,8.20
2018,10,06,02,31,8.20
2018,10,06,02,32,8.20
2018,10,06,02,33,8.20
2018,10,06,02,34,8.20
2018,10,06,02,35,8.20
2018,10,06,02,36,8.20
2018,10,06,02,37,8.30
2018,10,06,02,38,8.30
2018,10,06,02,39,8.30
2018,10,06,02,40,8.30
2018,10,06,02,41,8.30
2018,10,06,02,42,8.30
2018,10,06,02,43,8.30
2018,10,06,02,44,8.30
2018,10,06,02,45,8.40
2018,10,06,02,46,8.40
2018,10,06,02,47,8.40
2018,10,06,02,48,8.40
2018,10,06,02,49,8.50
2018,10,06,02,50,8.50
2018,10,06,02,51,8.50
2018,10,06,02,52,8.50
2018,10,06,02,53,8.60
2018,10,06,02,54,8.60
2018,10,06,02,55,8.60
2018,10,06,02,56,8.60
2018,10,06,02,57,8.60
2018,10,06,02,58,8.60
2018,10,06,02,59,8.50
2018,10,06,03,00,8.50
2018,10,06,03,01,8.40
2018,10,06,03,02,8.40
2018,10,06,03,03,8.30
2018,10,06,03,04,8.30
2018,10,06,03,05,8.30
2018,10,06,03,06,8.30
2018,10,06,03,07,8.20
2018,10,06,03,08,8.20
2018,10,06,03,09,8.20
2018,10,06,03,10,8.20
2018,10,06,03,11,8.20
2018,10,06,03,12,8.20
2018,10,06,03,13,8.20
2018,10,06,03,14,8.20
2018,10,06,03,15,8.20
2018,10,06,03,16,8.10
2018,10,06,03,17,8.10
2018,10,06,03,18,8.10
2018,10,06,03,19,8.10
2018,10,06,03,20,8.20
2018,10,06,03,21,8.20
2018,10,06,03,22,8.20
2018,10,06,03,23,8.20
2018,10,06,03,24,8.30
2018,10,06,03,25,8.30
2018,10,06,03,26,8.30
2018,10,06,03,27,8.30
2018,10,06,03,28,8.30
2018,10,06,03,29,8.40
2018,10,06,03,30,8.40
2018,10,06,03,31,8.40
2018,10,06,03,32,8.40
2018,10,06,03,33,8.40
2018,10,06,03,34,8.30
2018,10,06,03,35,8.30
2018,10,06,03,36,8.30
2018,10,06,03,37,8.30
2018,10,06,03,38,8.20
2018,10,06,03,39,8.20
2018,10,06,03,40,8.20
2018,10,06,03,41,8.10
2018,10,06,03,42,8.10
2018,10,06,03,43,8.10
2018,10,06,03,44,8.10
2018,10,06,03,45,8.10
2018,10,06,03,46,8.10
2018,10,06,03,47,8.10
2018,10,06,03,48,8.10
2018,10,06,03,49,8.10
2018,10,06,03,50,8.10
2018,10,06,03,51,8.20
2018,10,06,03,52,8.10
2018,10,06,03,53,8.10
2018,10,06,03,54,8.10
2018,10,06,03,55,8.10
2018,10,06,03,56,8.00
2018,10,06,03,57,8.00
2018,10,06,03,58,8.00
2018,10,06,03,59,8.10
2018,10,06,04,00,8.20
2018,10,06,04,01,8.20
2018,10,06,04,02,8.20
2018,10,06,04,03,8.20
2018,10,06,04,04,8.30
2018,10,06,04,05,8.30
2018,10,06,04,06,8.30
2018,10,06,04,07,8.30
2018,10,06,04,08,8.20
2018,10,06,04,09,8.20
2018,10,06,04,10,8.20
2018,10,06,04,11,8.20
2018,10,06,04,12,8.20
2018,10,06,04,13,8.20
2018,10,06,04,14,8.20
2018,10,06,04,15,8.20
2018,10,06,04,16,8.10
2018,10,06,04,17,8.10
2018,10,06,04,18,8.00
2018,10,06,04,19,7.90
2018,10,06,04,20,7.90
2018,10,06,04,21,7.90
2018,10,06,04,22,7.80
2018,10,06,04,23,7.80
2018,10,06,04,24,7.80
2018,10,06,04,25,7.80
2018,10,06,04,26,7.80
2018,10,06,04,27,7.70
2018,10,06,04,28,7.70
2018,10,06,04,29,7.70
2018,10,06,04,30,7.70
2018,10,06,04,31,7.70
2018,10,06,04,32,7.70
2018,10,06,04,33,7.70
2018,10,06,04,34,7.70
2018,10,06,04,35,7.70
2018,10,06,04,36,7.70
2018,10,06,04,37,7.70
2018,10,06,04,38,7.70
2018,10,06,04,39,7.70
2018,10,06,04,40,7.70
2018,10,06,04,41,7.60
2018,10,06,04,42,7.60
2018,10,06,04,43,7.60
2018,10,06,04,44,7.60
2018,10,06,04,45,7.50
2018,10,06,04,46,7.50
2018,10,06,04,47,7.50
2018,10,06,04,48,7.50
2018,10,06,04,49,7.40
2018,10,06,04,50,7.40
2018,10,06,04,51,7.40
2018,10,06,04,52,7.40
2018,10,06,04,53,7.40
2018,10,06,04,54,7.40
2018,10,06,04,55,7.30
2018,10,06,04,56,7.30
2018,10,06,04,57,7.30
2018,10,06,04,58,7.30
2018,10,06,04,59,7.30
2018,10,06,05,00,7.30
2018,10,06,05,01,7.30
2018,10,06,05,02,7.30
2018,10,06,05,03,7.30
2018,10,06,05,04,7.30
2018,10,06,05,05,7.30
2018,10,06,05,06,7.30
2018,10,06,05,07,7.30
2018,10,06,05,08,7.30
2018,10,06,05,09,7.30
2018,10,06,05,10,7.30
2018,10,06,05,11,7.30
2018,10,06,05,12,7.30
2018,10,06,05,13,7.20
2018,10,06,05,14,7.20
2018,10,06,05,15,7.20
2018,10,06,05,16,7.10
2018,10,06,05,17,7.10
2018,10,06,05,18,7.00
2018,10,06,05,19,7.00
2018,10,06,05,20,7.00
2018,10,06,05,21,7.00
2018,10,06,05,22,7.00
2018,10,06,05,23,7.00
2018,10,06,05,24,7.00
2018,10,06,05,25,7.00
2018,10,06,05,26,7.00
2018,10,06,05,27,7.00
2018,10,06,05,28,7.00
2018,10,06,05,29,7.00
2018,10,06,05,30,7.00
2018,10,06,05,31,7.00
2018,10,06,05,32,7.00
2018,10,06,05,33,7.00
2018,10,06,05,34,7.00
2018,10,06,05,35,6.90
2018,10,06,05,36,6.80
2018,10,06,05,37,6.70
2018,10,06,05,38,6.70
2018,10,06,05,39,6.60
2018,10,06,05,40,6.60
2018,10,06,05,41,6.60
2018,10,06,05,42,6.50
2018,10,06,05,43,6.60
2018,10,06,05,44,6.60
2018,10,06,05,45,6.60
2018,10,06,05,46,6.70
2018,10,06,05,47,6.70
2018,10,06,05,48,6.70
2018,10,06,05,49,6.70
2018,10,06,05,50,6.80
2018,10,06,05,51,6.80
2018,10,06,05,52,6.90
2018,10,06,05,53,6.90
2018,10,06,05,54,6.90
2018,10,06,05,55,6.90
2018,10,06,05,56,6.90
2018,10,06,05,57,7.00
2018,10,06,05,58,7.00
2018,10,06,05,59,7.00
2018,10,06,06,00,7.00
2018,10,06,06,01,7.00
2018,10,06,06,02,7.10
2018,10,06,06,03,7.10
2018,10,06,06,04,7.10
2018,10,06,06,05,7.10
2018,10,06,06,06,7.10
2018,10,06,06,07,7.10
2018,10,06,06,08,7.10
2018,10,06,06,09,7.10
2018,10,06,06,10,7.10
2018,10,06,06,11,7.10
2018,10,06,06,12,7.10
2018,10,06,06,13,7.10
2018,10,06,06,14,7.10
2018,10,06,06,15,7.10
2018,10,06,06,16,7.20
2018,10,06,06,17,7.20
2018,10,06,06,18,7.20
2018,10,06,06,19,7.20
2018,10,06,06,20,7.20
2018,10,06,06,21,7.20
2018,10,06,06,22,7.20
2018,10,06,06,23,7.10
2018,10,06,06,24,7.10
2018,10,06,06,25,7.10
2018,10,06,06,26,7.10
2018,10,06,06,27,7.10
2018,10,06,06,28,7.10
2018,10,06,06,29,7.20
2018,10,06,06,30,7.20
2018,10,06,06,31,7.20
2018,10,06,06,32,7.20
2018,10,06,06,33,7.20
2018,10,06,06,34,7.20
2018,10,06,06,35,7.20
2018,10,06,06,36,7.20
2018,10,06,06,37,7.30
2018,10,06,06,38,7.30
2018,10,06,06,39,7.30
2018,10,06,06,40,7.30
2018,10,06,06,41,7.30
2018,10,06,06,42,7.40
2018,10,06,06,43,7.30
2018,10,06,06,44,7.30
2018,10,06,06,45,7.20
2018,10,06,06,46,7.10
2018,10,06,06,47,7.00
2018,10,06,06,48,6.90
2018,10,06,06,49,6.80
2018,10,06,06,50,6.80
2018,10,06,06,51,6.70
2018,10,06,06,52,6.70
2018,10,06,06,53,6.70
2018,10,06,06,54,6.60
2018,10,06,06,55,6.50
2018,10,06,06,56,6.50
2018,10,06,06,57,6.40
2018,10,06,06,58,6.30
2018,10,06,06,59,6.20
2018,10,06,07,00,6.10
2018,10,06,07,01,6.00
2018,10,06,07,02,6.00
2018,10,06,07,03,5.90
2018,10,06,07,04,5.90
2018,10,06,07,05,5.90
2018,10,06,07,06,5.90
2018,10,06,07,07,6.00
2018,10,06,07,08,6.00
2018,10,06,07,09,6.00
2018,10,06,07,10,6.10
2018,10,06,07,11,6.10
2018,10,06,07,12,6.10
2018,10,06,07,13,6.00
2018,10,06,07,14,6.00
2018,10,06,07,15,5.90
2018,10,06,07,16,5.90
2018,10,06,07,17,5.90
2018,10,06,07,18,5.90
2018,10,06,07,19,5.90
2018,10,06,07,20,5.90
2018,10,06,07,21,5.90
2018,10,06,07,22,5.90
2018,10,06,07,23,5.90
2018,10,06,07,24,5.80
2018,10,06,07,25,5.80
2018,10,06,07,26,5.90
2018,10,06,07,27,6.00
2018,10,06,07,28,6.10
2018,10,06,07,29,6.20
2018,10,06,07,30,6.30
2018,10,06,07,31,6.30
2018,10,06,07,32,6.40
2018,10,06,07,33,6.50
2018,10,06,07,34,6.60
2018,10,06,07,35,6.60
2018,10,06,07,36,6.70
2018,10,06,07,37,6.70
2018,10,06,07,38,6.70
2018,10,06,07,39,6.80
2018,10,06,07,40,6.80
2018,10,06,07,41,6.80
2018,10,06,07,42,6.80
2018,10,06,07,43,6.80
2018,10,06,07,44,6.80
2018,10,06,07,45,6.80
2018,10,06,07,46,6.80
2018,10,06,07,47,6.80
2018,10,06,07,48,6.70
2018,10,06,07,49,6.60
2018,10,06,07,50,6.60
2018,10,06,07,51,6.60
2018,10,06,07,52,6.60
2018,10,06,07,53,6.60
2018,10,06,07,54,6.60
2018,10,06,07,55,6.60
2018,10,06,07,56,6.60
2018,10,06,07,57,6.60
2018,10,06,07,58,6.60
2018,10,06,07,59,6.60
2018,10,06,08,00,6.60
2018,10,06,08,01,6.70
2018,10,06,08,02,6.70
2018,10,06,08,03,6.70
2018,10,06,08,04,6.60
2018,10,06,08,05,6.60
2018,10,06,08,06,6.60
2018,10,06,08,07,6.60
2018,10,06,08,08,6.60
2018,10,06,08,09,6.70
2018,10,06,08,10,6.70
2018,10,06,08,11,6.80
2018,10,06,08,12,6.80
2018,10,06,08,13,6.90
2018,10,06,08,14,6.90
2018,10,06,08,15,6.90
2018,10,06,08,16,6.90
2018,10,06,08,17,6.90
2018,10,06,08,18,6.90
2018,10,06,08,19,7.00
2018,10,06,08,20,7.00
2018,10,06,08,21,7.00
2018,10,06,08,22,7.00
2018,10,06,08,23,7.00
2018,10,06,08,24,7.00
2018,10,06,08,25,7.10
2018,10,06,08,26,7.10
2018,10,06,08,27,7.20
2018,10,06,08,28,7.20
2018,10,06,08,29,7.20
2018,10,06,08,30,7.30
2018,10,06,08,31,7.30
2018,10,06,08,32,7.30
2018,10,06,08,33,7.40
2018,10,06,08,34,7.50
2018,10,06,08,35,7.50
2018,10,06,08,36,7.60
2018,10,06,08,37,7.70
2018,10,06,08,38,7.80
2018,10,06,08,39,7.90
2018,10,06,08,40,8.00
2018,10,06,08,41,8.00
2018,10,06,08,42,8.10
2018,10,06,08,43,8.20
2018,10,06,08,44,8.20
2018,10,06,08,45,8.20
2018,10,06,08,46,8.30
2018,10,06,08,47,8.30
2018,10,06,08,48,8.30
2018,10,06,08,49,8.40
2018,10,06,08,50,8.50
2018,10,06,08,51,8.50
2018,10,06,08,52,8.60
2018,10,06,08,53,8.60
2018,10,06,08,54,8.70
2018,10,06,08,55,8.70
2018,10,06,08,56,8.70
2018,10,06,08,57,8.80
2018,10,06,08,58,8.80
2018,10,06,08,59,8.80
2018,10,06,09,00,8.80
2018,10,06,09,01,8.90
2018,10,06,09,02,8.90
2018,10,06,09,03,9.00
2018,10,06,09,04,9.00
2018,10,06,09,05,9.00
2018,10,06,09,06,9.10
2018,10,06,09,07,9.10
2018,10,06,09,08,9.20
2018,10,06,09,09,9.20
2018,10,06,09,10,9.20
2018,10,06,09,11,9.30
2018,10,06,09,12,9.40
2018,10,06,09,13,9.40
2018,10,06,09,14,9.50
2018,10,06,09,15,9.60
2018,10,06,09,16,9.70
2018,10,06,09,17,9.80
2018,10,06,09,18,10.00
2018,10,06,09,19,10.10
2018,10,06,09,20,10.20
2018,10,06,09,21,10.30
2018,10,06,09,22,10.40
2018,10,06,09,23,10.40
2018,10,06,09,24,10.50
2018,10,06,09,25,10.60
2018,10,06,09,26,10.70
2018,10,06,09,27,10.80
2018,10,06,09,28,10.90
2018,10,06,09,29,11.00
2018,10,06,09,30,11.10
2018,10,06,09,31,11.20
2018,10,06,09,32,11.30
2018,10,06,09,33,11.40
2018,10,06,09,34,11.40
2018,10,06,09,35,11.50
2018,10,06,09,36,11.60
2018,10,06,09,37,11.70
2018,10,06,09,38,11.80
2018,10,06,09,39,11.90
2018,10,06,09,40,11.90
2018,10,06,09,41,12.00
2018,10,06,09,42,12.10
2018,10,06,09,43,12.10
2018,10,06,09,44,12.20
2018,10,06,09,45,12.20
2018,10,06,09,46,12.20
2018,10,06,09,47,12.30
2018,10,06,09,48,12.30
2018,10,06,09,49,12.40
2018,10,06,09,50,12.40
2018,10,06,09,51,12.50
2018,10,06,09,52,12.50
2018,10,06,09,53,12.60
2018,10,06,09,54,12.60
2018,10,06,09,55,12.70
2018,10,06,09,56,12.70
2018,10,06,09,57,12.70
2018,10,06,09,58,12.70
2018,10,06,09,59,12.70
2018,10,06,10,00,12.70
2018,10,06,10,01,12.70
2018,10,06,10,02,12.70
2018,10,06,10,03,12.60
2018,10,06,10,04,12.60
2018,10,06,10,05,12.50
2018,10,06,10,06,12.40
2018,10,06,10,07,12.30
2018,10,06,10,08,12.10
2018,10,06,10,09,12.00
2018,10,06,10,10,11.90
2018,10,06,10,11,11.90
2018,10,06,10,12,11.80
2018,10,06,10,13,11.80
2018,10,06,10,14,11.80
2018,10,06,10,15,11.80
2018,10,06,10,16,11.80
2018,10,06,10,17,11.90
2018,10,06,10,18,11.90
2018,10,06,10,19,12.00
2018,10,06,10,20,12.00
2018,10,06,10,21,12.10
2018,10,06,10,22,12.10
2018,10,06,10,23,12.10
2018,10,06,10,24,12.20
2018,10,06,10,25,12.20
2018,10,06,10,26,12.30
2018,10,06,10,27,12.30
2018,10,06,10,28,12.20
2018,10,06,10,29,12.10
2018,10,06,10,30,12.00
2018,10,06,10,31,11.90
2018,10,06,10,32,11.80
2018,10,06,10,33,11.80
2018,10,06,10,34,11.80
2018,10,06,10,35,11.70
2018,10,06,10,36,11.70
2018,10,06,10,37,11.70
2018,10,06,10,38,11.70
2018,10,06,10,39,11.70
2018,10,06,10,40,11.60
2018,10,06,10,41,11.60
2018,10,06,10,42,11.60
2018,10,06,10,43,11.50
2018,10,06,10,44,11.50
2018,10,06,10,45,11.40
2018,10,06,10,46,11.30
2018,10,06,10,47,11.30
2018,10,06,10,48,11.30
2018,10,06,10,49,11.30
2018,10,06,10,50,11.30
2018,10,06,10,51,11.30
2018,10,06,10,52,11.30
2018,10,06,10,53,11.30
2018,10,06,10,54,11.30
2018,10,06,10,55,11.30
2018,10,06,10,56,11.30
2018,10,06,10,57,11.30
2018,10,06,10,58,11.40
2018,10,06,10,59,11.40
2018,10,06,11,00,11.40
2018,10,06,11,01,11.40
2018,10,06,11,02,11.40
2018,10,06,11,03,11.30
2018,10,06,11,04,11.30
2018,10,06,11,05,11.40
2018,10,06,11,06,11.40
2018,10,06,11,07,11.50
2018,10,06,11,08,11.50
2018,10,06,11,09,11.60
2018,10,06,11,10,11.70
2018,10,06,11,11,11.70
2018,10,06,11,12,11.70
2018,10,06,11,13,11.70
2018,10,06,11,14,11.70
2018,10,06,11,15,11.60
2018,10,06,11,16,11.60
2018,10,06,11,17,11.50
2018,10,06,11,18,11.50
2018,10,06,11,19,11.40
2018,10,06,11,20,11.40
2018,10,06,11,21,11.40
2018,10,06,11,22,11.40
2018,10,06,11,23,11.30
2018,10,06,11,24,11.30
2018,10,06,11,25,11.30
2018,10,06,11,26,11.30
2018,10,06,11,27,11.20
2018,10,06,11,28,11.20
2018,10,06,11,29,11.20
2018,10,06,11,30,11.20
2018,10,06,11,31,11.20
2018,10,06,11,32,11.20
2018,10,06,11,33,11.20
2018,10,06,11,34,11.20
2018,10,06,11,35,11.20
2018,10,06,11,36,11.20
2018,10,06,11,37,11.20
2018,10,06,11,38,11.20
2018,10,06,11,39,11.20
2018,10,06,11,40,11.20
2018,10,06,11,41,11.30
2018,10,06,11,42,11.30
2018,10,06,11,43,11.40
2018,10,06,11,44,11.40
2018,10,06,11,45,11.40
2018,10,06,11,46,11.40
2018,10,06,11,47,11.40
2018,10,06,11,48,11.40
2018,10,06,11,49,11.30
2018,10,06,11,50,11.30
2018,10,06,11,51,11.30
2018,10,06,11,52,11.40
2018,10,06,11,53,11.40
2018,10,06,11,54,11.50
2018,10,06,11,55,11.60
2018,10,06,11,56,11.60
2018,10,06,11,57,11.60
2018,10,06,11,58,11.70
2018,10,06,11,59,11.80
2018,10,06,12,00,11.80
2018,10,06,12,01,11.70
2018,10,06,12,02,11.60
2018,10,06,12,03,11.50
2018,10,06,12,04,11.40
2018,10,06,12,05,11.30
2018,10,06,12,06,11.30
2018,10,06,12,07,11.30
2018,10,06,12,08,11.30
2018,10,06,12,09,11.30
2018,10,06,12,10,11.30
2018,10,06,12,11,11.30
2018,10,06,12,12,11.30
2018,10,06,12,13,11.30
2018,10,06,12,14,11.30
2018,10,06,12,15,11.30
2018,10,06,12,16,11.30
2018,10,06,12,17,11.20
2018,10,06,12,18,11.20
2018,10,06,12,19,11.30
2018,10,06,12,20,11.30
2018,10,06,12,21,11.30
2018,10,06,12,22,11.30
2018,10,06,12,23,11.30
2018,10,06,12,24,11.30
2018,10,06,12,25,11.30
2018,10,06,12,26,11.30
2018,10,06,12,27,11.40
2018,10,06,12,28,11.50
2018,10,06,12,29,11.60
2018,10,06,12,30,11.70
2018,10,06,12,31,11.70
2018,10,06,12,32,11.80
2018,10,06,12,33,11.90
2018,10,06,12,34,11.90
2018,10,06,12,35,11.80
2018,10,06,12,36,11.80
2018,10,06,12,37,11.70
2018,10,06,12,38,11.80
2018,10,06,12,39,11.80
2018,10,06,12,40,11.80
2018,10,06,12,41,11.80
2018,10,06,12,42,11.80
2018,10,06,12,43,11.80
2018,10,06,12,44,11.80
2018,10,06,12,45,11.80
2018,10,06,12,46,11.80
2018,10,06,12,47,11.80
2018,10,06,12,48,11.70
2018,10,06,12,49,11.70
2018,10,06,12,50,11.80
2018,10,06,12,51,11.80
2018,10,06,12,52,11.80
2018,10,06,12,53,11.80
2018,10,06,12,54,11.90
2018,10,06,12,55,12.00
2018,10,06,12,56,12.00
2018,10,06,12,57,12.00
2018,10,06,12,58,12.10
2018,10,06,12,59,12.10
2018,10,06,13,00,12.10
2018,10,06,13,01,12.10
2018,10,06,13,02,12.20
2018,10,06,13,03,12.20
2018,10,06,13,04,12.20
2018,10,06,13,05,12.20
2018,10,06,13,06,12.20
2018,10,06,13,07,12.20
2018,10,06,13,08,12.20
2018,10,06,13,09,12.20
2018,10,06,13,10,12.20
2018,10,06,13,11,12.20
2018,10,06,13,12,12.20
2018,10,06,13,13,12.20
2018,10,06,13,14,12.20
2018,10,06,13,15,12.20
2018,10,06,13,16,12.30
2018,10,06,13,17,12.30
2018,10,06,13,18,12.30
2018,10,06,13,19,12.30
2018,10,06,13,20,12.30
2018,10,06,13,21,12.40
2018,10,06,13,22,12.40
2018,10,06,13,23,12.30
2018,10,06,13,24,12.40
2018,10,06,13,25,12.50
2018,10,06,13,26,12.50
2018,10,06,13,27,12.60
2018,10,06,13,28,12.70
2018,10,06,13,29,12.70
2018,10,06,13,30,12.80
2018,10,06,13,31,12.80
2018,10,06,13,32,12.90
2018,10,06,13,33,12.90
2018,10,06,13,34,12.90
2018,10,06,13,35,12.90
2018,10,06,13,36,12.90
2018,10,06,13,37,12.90
2018,10,06,13,38,12.80
2018,10,06,13,39,12.80
2018,10,06,13,40,12.80
2018,10,06,13,41,12.70
2018,10,06,13,42,12.70
2018,10,06,13,43,12.70
2018,10,06,13,44,12.70
2018,10,06,13,45,12.80
2018,10,06,13,46,12.80
2018,10,06,13,47,12.80
2018,10,06,13,48,12.80
2018,10,06,13,49,12.80
2018,10,06,13,50,12.80
2018,10,06,13,51,12.80
2018,10,06,13,52,12.80
2018,10,06,13,53,12.70
2018,10,06,13,54,12.70
2018,10,06,13,55,12.60
2018,10,06,13,56,12.70
2018,10,06,13,57,12.70
2018,10,06,13,58,12.80
2018,10,06,13,59,12.90
2018,10,06,14,00,12.90
2018,10,06,14,01,12.90
2018,10,06,14,02,12.90
2018,10,06,14,03,12.90
2018,10,06,14,04,12.80
2018,10,06,14,05,12.80
2018,10,06,14,06,12.70
2018,10,06,14,07,12.70
2018,10,06,14,08,12.70
2018,10,06,14,09,12.70
2018,10,06,14,10,12.70
2018,10,06,14,11,12.80
2018,10,06,14,12,12.90
2018,10,06,14,13,13.00
2018,10,06,14,14,13.00
2018,10,06,14,15,13.00
2018,10,06,14,16,12.90
2018,10,06,14,17,12.80
2018,10,06,14,18,12.70
2018,10,06,14,19,12.60
2018,10,06,14,20,12.60
2018,10,06,14,21,12.50
2018,10,06,14,22,12.60
2018,10,06,14,23,12.50
2018,10,06,14,24,12.50
2018,10,06,14,25,12.50
2018,10,06,14,26,12.60
2018,10,06,14,27,12.60
2018,10,06,14,28,12.60
2018,10,06,14,29,12.60
2018,10,06,14,30,12.70
2018,10,06,14,31,12.70
2018,10,06,14,32,12.80
2018,10,06,14,33,12.80
2018,10,06,14,34,12.80
2018,10,06,14,35,12.80
2018,10,06,14,36,12.80
2018,10,06,14,37,12.80
2018,10,06,14,38,12.80
2018,10,06,14,39,12.70
2018,10,06,14,40,12.80
2018,10,06,14,41,12.80
2018,10,06,14,42,12.80
2018,10,06,14,43,12.80
2018,10,06,14,44,12.80
2018,10,06,14,45,12.80
2018,10,06,14,46,12.70
2018,10,06,14,47,12.70
2018,10,06,14,48,12.70
2018,10,06,14,49,12.60
2018,10,06,14,50,12.60
2018,10,06,14,51,12.60
2018,10,06,14,52,12.60
2018,10,06,14,53,12.70
2018,10,06,14,54,12.70
2018,10,06,14,55,12.70
2018,10,06,14,56,12.70
2018,10,06,14,57,12.70
2018,10,06,14,58,12.70
2018,10,06,14,59,12.70
2018,10,06,15,00,12.70
2018,10,06,15,01,12.80
2018,10,06,15,02,12.80
2018,10,06,15,03,12.70
2018,10,06,15,04,12.70
2018,10,06,15,05,12.70
2018,10,06,15,06,12.70
2018,10,06,15,07,12.80
2018,10,06,15,08,12.80
2018,10,06,15,09,12.80
2018,10,06,15,10,12.90
2018,10,06,15,11,12.90
2018,10,06,15,12,12.90
2018,10,06,15,13,12.90
2018,10,06,15,14,12.90
2018,10,06,15,15,12.90
2018,10,06,15,16,12.90
2018,10,06,15,17,12.90
2018,10,06,15,18,13.00
2018,10,06,15,19,13.00
2018,10,06,15,20,13.00
2018,10,06,15,21,13.10
2018,10,06,15,22,13.10
2018,10,06,15,23,13.20
2018,10,06,15,24,13.20
2018,10,06,15,25,13.10
2018,10,06,15,26,13.10
2018,10,06,15,27,13.00
2018,10,06,15,28,12.90
2018,10,06,15,29,12.90
2018,10,06,15,30,12.90
2018,10,06,15,31,12.90
2018,10,06,15,32,12.90
2018,10,06,15,33,12.90
2018,10,06,15,34,12.90
2018,10,06,15,35,13.00
2018,10,06,15,36,13.00
2018,10,06,15,37,13.00
2018,10,06,15,38,13.00
2018,10,06,15,39,13.00
2018,10,06,15,40,12.90
2018,10,06,15,41,12.90
2018,10,06,15,42,12.90
2018,10,06,15,43,12.90
2018,10,06,15,44,12.90
2018,10,06,15,45,12.90
2018,10,06,15,46,12.90
2018,10,06,15,47,12.90
2018,10,06,15,48,12.90
2018,10,06,15,49,12.90
2018,10,06,15,50,12.90
2018,10,06,15,51,12.80
2018,10,06,15,52,12.80
2018,10,06,15,53,12.70
2018,10,06,15,54,12.70
2018,10,06,15,55,12.70
2018,10,06,15,56,12.70
2018,10,06,15,57,12.60
2018,10,06,15,58,12.60
2018,10,06,15,59,12.60
2018,10,06,16,00,12.50
2018,10,06,16,01,12.60
2018,10,06,16,02,12.60
2018,10,06,16,03,12.60
2018,10,06,16,04,12.60
2018,10,06,16,05,12.60
2018,10,06,16,06,12.60
2018,10,06,16,07,12.60
2018,10,06,16,08,12.60
2018,10,06,16,09,12.60
2018,10,06,16,10,12.70
2018,10,06,16,11,12.70
2018,10,06,16,12,12.70
2018,10,06,16,13,12.70
2018,10,06,16,14,12.70
2018,10,06,16,15,12.70
2018,10,06,16,16,12.80
2018,10,06,16,17,12.80
2018,10,06,16,18,12.90
2018,10,06,16,19,12.90
2018,10,06,16,20,12.90
2018,10,06,16,21,12.90
2018,10,06,16,22,12.90
2018,10,06,16,23,12.90
2018,10,06,16,24,12.80
2018,10,06,16,25,12.80
2018,10,06,16,26,12.80
2018,10,06,16,27,12.90
2018,10,06,16,28,12.90
2018,10,06,16,29,12.80
2018,10,06,16,30,12.80
2018,10,06,16,31,12.80
2018,10,06,16,32,12.80
2018,10,06,16,33,12.80
2018,10,06,16,34,12.70
2018,10,06,16,35,12.70
2018,10,06,16,36,12.70
2018,10,06,16,37,12.70
2018,10,06,16,38,12.60
2018,10,06,16,39,12.60
2018,10,06,16,40,12.60
2018,10,06,16,41,12.60
2018,10,06,16,42,12.50
2018,10,06,16,43,12.50
2018,10,06,16,44,12.40
2018,10,06,16,45,12.40
2018,10,06,16,46,12.40
2018,10,06,16,47,12.30
2018,10,06,16,48,12.30
2018,10,06,16,49,12.30
2018,10,06,16,50,12.30
2018,10,06,16,51,12.20
2018,10,06,16,52,12.20
2018,10,06,16,53,12.10
2018,10,06,16,54,12.00
2018,10,06,16,55,12.00
2018,10,06,16,56,11.90
2018,10,06,16,57,11.90
2018,10,06,16,58,11.90
2018,10,06,16,59,11.90
2018,10,06,17,00,11.90
2018,10,06,17,01,11.90
2018,10,06,17,02,11.90
2018,10,06,17,03,12.00
2018,10,06,17,04,12.00
2018,10,06,17,05,12.00
2018,10,06,17,06,12.00
2018,10,06,17,07,12.00
2018,10,06,17,08,12.00
2018,10,06,17,09,12.00
2018,10,06,17,10,12.00
2018,10,06,17,11,12.10
2018,10,06,17,12,12.10
2018,10,06,17,13,12.10
2018,10,06,17,14,12.10
2018,10,06,17,15,12.10
2018,10,06,17,16,12.10
2018,10,06,17,17,12.10
2018,10,06,17,18,12.00
2018,10,06,17,19,12.00
2018,10,06,17,20,12.00
2018,10,06,17,21,11.90
2018,10,06,17,22,11.90
2018,10,06,17,23,11.90
2018,10,06,17,24,11.90
2018,10,06,17,25,11.90
2018,10,06,17,26,11.90
2018,10,06,17,27,11.80
2018,10,06,17,28,11.80
2018,10,06,17,29,11.80
2018,10,06,17,30,11.70
2018,10,06,17,31,11.70
2018,10,06,17,32,11.70
2018,10,06,17,33,11.70
2018,10,06,17,34,11.70
2018,10,06,17,35,11.60
2018,10,06,17,36,11.60
2018,10,06,17,37,11.70
2018,10,06,17,38,11.70
2018,10,06,17,39,11.70
2018,10,06,17,40,11.70
2018,10,06,17,41,11.70
2018,10,06,17,42,11.70
2018,10,06,17,43,11.70